This is the latest recevied weather packets stored in our database for station/object W5GBS-9. If no packets are shown the sender has not sent any weather packets the latest 10 day(s).
| Time | Temp. | Humidity | Pressure | Rain* | Wind** | Luminosity | Snow |
|---|---|---|---|---|---|---|---|
| 1777445521 | 22.78° C | 100% | 1016.6 hPa | 0 mm | - | - | - |
| 1777444800 | 22.78° C | 100% | 1016.8 hPa | 0 mm | - | - | - |
| 1777444079 | 23.33° C | 100% | 1016.9 hPa | 0 mm | - | - | - |
| 1777443358 | 23.33° C | 100% | 1016.8 hPa | 0 mm | - | - | - |
| 1777442639 | 22.78° C | 100% | 1017.1 hPa | 0 mm | - | - | - |
| 1777441917 | 22.78° C | 100% | 1017.2 hPa | 0 mm | - | - | - |
| 1777441196 | 22.78° C | 100% | 1017.2 hPa | 0 mm | - | - | - |
| 1777440475 | 22.78° C | 100% | 1017.3 hPa | 0 mm | - | - | - |
| 1777439755 | 22.78° C | 100% | 1017.4 hPa | 0 mm | - | - | - |
| 1777439036 | 23.33° C | 100% | 1017.4 hPa | 0 mm | - | - | - |
| 1777438314 | 23.33° C | 100% | 1017.5 hPa | 0 mm | - | - | - |
| 1777437593 | 23.33° C | 100% | 1017.6 hPa | 0 mm | - | - | - |
| 1777436872 | 23.89° C | 100% | 1017.4 hPa | 0 mm | - | - | - |
| 1777436151 | 23.89° C | 100% | 1017.4 hPa | 0 mm | - | - | - |
| 1777435434 | 23.89° C | 100% | 1017.5 hPa | 0 mm | - | - | - |
| 1777434710 | 24.44° C | 100% | 1017.6 hPa | 0 mm | - | - | - |
| 1777433989 | 24.44° C | 100% | 1017.6 hPa | 0 mm | - | - | - |
| 1777433269 | 24.44° C | 100% | 1017.4 hPa | 0 mm | - | - | - |
| 1777432549 | 24.44° C | 100% | 1017.2 hPa | 0 mm | - | - | - |
| 1777431827 | 24.44° C | 100% | 1017 hPa | 0 mm | - | - | - |
| 1777431107 | 25° C | 100% | 1016.9 hPa | 0 mm | - | - | - |
| 1777430386 | 25° C | 100% | 1016.8 hPa | 0 mm | - | - | - |
| 1777429665 | 25° C | 100% | 1016.5 hPa | 0 mm | - | - | - |
| 1777428944 | 25.56° C | 100% | 1016.2 hPa | 0 mm | - | - | - |
| 1777428225 | 25.56° C | 100% | 1015.9 hPa | 0 mm | - | - | - |
* Rain latest hour (hover to see other rain measurements)
** Current wind speed in m/s (hover to see current wind gust speed)